Location: Aldenham
(51.6667°N, 0.3500°W)
Time: 18:58:12
(UTC+00:00)

Courier 1B - All Passes

Search period start: 18 February 2026 00:00
Search period end: 28 February 2026 00:00
Orbit: 962 x 1208 km, 28.3° (Epoch: 18 February)

Date Brightness Start Highest point End Pass type
(mag) Time Alt. Az. Time Alt. Az. Time Alt. Az.
18 Feb - 20:51:59 10° S 20:53:18 10° S 20:54:37 10° SSE visible
19 Feb - 21:51:17 10° SSW 21:52:13 10° S 21:53:08 10° S visible
20 Feb - 20:57:23 10° SSW 20:58:39 10° S 20:59:55 10° S visible
21 Feb - 20:04:22 10° S 20:05:05 10° S 20:05:49 10° S visible
